Location: Auckland
(36.8670°S, 174.7670°E)
Time: 23:48:03
(UTC+12:00)

Courier 1B Rocket - Pass Details

Date: 27 July 2019
Orbit: 920 x 1202 km, 28.3° (Epoch: 20 August)

Event Time Altitude Azimuth Distance (km) Brightness Sun altitude
Rises 03:39:47 0° 291° (WNW) 4,093 - -44.7°
Reaches altitude 10° 03:42:46 10° 297° (WNW) 3,138 - -44.1°
Maximum altitude 03:50:06 44° 5° (N) 1,609 - -42.7°
Exits shadow 03:53:08 31° 52° (NE) 1,950 6.7 -42.1°
Drops below altitude 10° 03:57:18 10° 74° (ENE) 3,076 8.2 -41.2°
Sets 04:00:12 0° 80° (E) 4,005 9.0 -40.7°
